[[{"header":{"parameterUnit":"m.s-1","parameterCategory":1,"la1":30.2991,"la2":30.254,"lo1":-89.0895,"lo2":-89.0444,"dy":0.0017,"dx":0.0017,"nx":28,"ny":28,"refTime":"2025-08-23T03:00:00:Z","depth":0,"parameterNumber":2,"parameterNumberName":"U-component_of_WINDS"},"data":[0,0,0,0,0,0,0,0,0,0,0,0,0,0,0,0,0,0,0,0,0,0,0,0,0,0,0,0,0,0,0,0,0,0,0,0,0,0,0,0,0,0,0,0,0,0,0,0,0,0,0,0,0,0,0,0,0,0,1.3358,1.3358,0,1.3376,1.3376,1.3376,1.3409,1.341,1.341,1.3411,1.3428,1.3428,1.3428,0,0,0,0,0,0,0,0,0,0,0,0,0,1.3352,1.3352,1.3358,1.3358,1.3358,1.3376,1.3376,1.3376,1.3409,1.341,1.3411,1.3411,1.3428,1.3428,1.3428,0,0,0,0,0,0,0,0,0,0,0,0,0,1.3361,1.3352,1.3358,1.3377,1.3379,1.3376,1.3376,1.3376,1.3409,1.341,1.3411,1.3412,1.3428,1.3428,1.3428,1.3408,0,0,1.3427,1.3427,0,0,0,0,0,0,0,0,1.336,1.3361,1.3374,1.3376,1.3378,1.3391,1.338,1.3387,1.3409,1.3397,1.3411,1.3412,1.3415,1.3416,1.3417,1.3409,1.3409,1.3427,1.3427,1.3427,1.3427,0,0,0,0,0,0,0,1.3359,1.336,1.3365,1.3374,1.3376,1.3384,1.3387,1.3382,1.3401,1.3398,1.3401,1.3403,1.3416,1.3417,1.3418,1.341,1.3427,1.3427,1.3427,1.3427,1.3385,1.3384,0,0,0,0,0,0,1.3356,1.3359,1.3365,1.3366,1.3371,1.3384,1.3386,1.3386,1.3401,1.3404,1.3402,1.3404,1.3417,1.3418,1.3419,1.3396,1.3427,1.3427,1.3427,1.3386,1.3385,1.3384,0,0,0,0,0,0,1.3356,1.3356,1.3364,1.3363,1.3365,1.3383,1.3382,1.3386,1.3387,1.3403,1.3407,1.3399,1.3418,1.3419,1.341,1.3397,1.3427,1.3427,1.3387,1.3386,1.3384,1.3349,0,0,0,0,0,0,1.3355,1.3356,1.3348,1.3363,1.3365,1.3355,1.3381,1.3385,1.3387,1.339,1.3402,1.3405,1.3419,1.341,1.341,1.3397,1.3427,1.3388,1.3386,1.3385,1.3352,1.3347,1.3343,0,0,0,0,0,1.3355,1.3338,1.3348,1.3348,1.3356,1.3354,1.3355,1.3372,1.3385,1.3378,1.3389,1.3405,1.3398,1.3409,1.3409,1.3396,1.3389,1.3387,1.3385,1.3354,1.3348,1.3343,0,0,0,0,0,0,1.3321,1.334,1.3351,1.3338,1.3344,1.336,1.3351,1.3365,1.3367,1.337,1.3391,1.3393,1.3381,1.3388,1.34,1.3377,1.3396,1.3394,1.3373,1.3367,1.3363,1.3361,1.3426,0,0,0,0,0,1.3312,1.3309,1.3326,1.3313,1.3315,1.3332,1.3332,1.3345,1.3352,1.3355,1.3365,1.3371,1.337,1.3369,1.337,1.3353,1.3356,1.3344,1.3339,1.3336,1.3333,1.3324,1.3319,1.3376,1.3376,1.3376,0,0,1.3293,1.3303,1.33,1.3306,1.3312,1.3309,1.3334,1.333,1.3327,1.3354,1.3346,1.3354,1.3362,1.3349,1.3344,1.3354,1.3318,1.3333,1.333,1.3329,1.3322,1.3316,1.3311,1.3375,1.3375,1.3375,0,0,1.3257,1.3265,1.3254,1.326,1.3269,1.3281,1.3279,1.3292,1.3298,1.3291,1.331,1.3308,1.3307,1.3312,1.3314,1.328,1.3295,1.328,1.3255,1.3247,1.3242,1.3238,1.3226,1.3221,1.3277,1.3277,1.3277,0,1.3232,1.3228,1.3247,1.3241,1.3243,1.3267,1.3257,1.3262,1.327,1.3271,1.3282,1.3281,1.3289,1.3277,1.3269,1.327,1.3268,1.3278,1.3241,1.3238,1.3234,1.3222,1.3218,1.3275,1.3275,1.3276,1.3276,0,1.3197,1.3194,1.3184,1.3192,1.3193,1.3185,1.3203,1.3201,1.3214,1.3224,1.3216,1.3226,1.3229,1.3227,1.3239,1.3217,1.3223,1.3238,1.3258,1.3227,1.3216,1.3211,1.3272,1.3273,1.3274,1.3274,0,0,1.3139,1.3158,1.3154,1.3158,1.317,1.3168,1.3161,1.3164,1.3162,1.3168,1.3162,1.3161,1.3174,1.3177,1.319,1.3182,1.3154,1.3198,1.3198,1.3189,1.313,1.3118,1.3112,1.3164,1.3164,1.3163,1.3129,0,1.3105,1.3094,1.3111,1.3096,1.3093,1.3116,1.311,1.3117,1.3126,1.3125,1.3136,1.3134,1.3153,1.3154,1.3148,1.3159,1.3142,1.3162,1.3158,1.3158,1.3155,1.3107,1.3095,1.3062,1.3125,1.3124,1.3124,0,1.3063,1.3067,1.3052,1.3065,1.3064,1.3058,1.3062,1.3061,1.3069,1.3077,1.308,1.3095,1.3089,1.3109,1.31,1.3113,1.3113,1.3118,1.3117,1.3117,1.3138,1.3104,1.3052,1.3047,1.3117,1.3118,1.3118,0,1.3022,1.3023,1.3014,1.3016,1.3032,1.3027,1.3033,1.3042,1.3043,1.3047,1.3047,1.305,1.3051,1.3053,1.3068,1.3082,1.3058,1.3079,1.3063,1.3063,1.3056,1.3056,1.3002,1.3058,1.3058,1.3058,1.3058,0,1.2981,1.2971,1.2995,1.2989,1.2978,1.2998,1.2987,1.2995,1.3003,1.2999,1.302,1.3016,1.3037,1.3035,1.3048,1.3038,1.3039,1.3044,1.3048,1.3042,1.3041,1.3041,1.3044,1.3056,1.3057,1.3057,1.3057,0,1.2932,1.2948,1.294,1.2955,1.2959,1.295,1.2963,1.2958,1.297,1.2964,1.2964,1.2982,1.2981,1.2997,1.2999,1.3007,1.2992,1.3,1.2989,1.2991,1.2974,1.2975,1.2917,1.291,1.2971,1.297,1.297,0,1.2905,1.2898,1.2912,1.2911,1.2916,1.2915,1.2916,1.2935,1.2935,1.2944,1.2938,1.2938,1.294,1.2937,1.295,1.2951,1.2959,1.2938,1.2959,1.2953,1.2957,1.2957,1.2956,1.2934,1.2933,1.2932,1.2932,0,1.2855,1.2863,1.2864,1.2867,1.2867,1.2871,1.2876,1.2874,1.2895,1.2894,1.2893,1.2894,1.2896,1.2897,1.2901,1.2907,1.2922,1.2925,1.2922,1.2915,1.2909,1.2911,1.2976,1.2926,1.2927,1.2927,1.2927,1.2928,1.2815,1.281,1.2819,1.2819,1.2825,1.2829,1.2825,1.2836,1.2836,1.2839,1.2851,1.2848,1.2856,1.2863,1.2868,1.2866,1.2875,1.287,1.2869,1.2867,1.2863,1.291,1.2867,1.2867,1.2867,1.2867,1.2867,0,1.2765,1.2773,1.2772,1.2779,1.2778,1.2794,1.28,1.2799,1.2796,1.2803,1.2804,1.2803,1.2803,1.2816,1.2818,1.2813,1.2821,1.2813,1.2813,1.2814,1.2855,1.2857,1.2807,1.2807,1.2807,1.2807,1.2807,1.2807,1.2739,1.273,1.274,1.2734,1.2741,1.2739,1.2741,1.2744,1.275,1.2748,1.2748,1.2757,1.2766,1.2768,1.2769,1.2773,1.2772,1.2762,1.2768,1.2806,1.2811,1.2817,1.2819,1.2762,1.2762,1.2728,1.2727,1.2727]},{"header":{"parameterUnit":"m.s-1","parameterCategory":1,"la1":30.2991,"la2":30.254,"lo1":-89.0895,"lo2":-89.0444,"dy":0.0017,"dx":0.0017,"nx":28,"ny":28,"refTime":"2025-08-23T03:00:00:Z","depth":0,"parameterNumber":3,"parameterNumberName":"V-component_of_WINDS"},"data":[0,0,0,0,0,0,0,0,0,0,0,0,0,0,0,0,0,0,0,0,0,0,0,0,0,0,0,0,0,0,0,0,0,0,0,0,0,0,0,0,0,0,0,0,0,0,0,0,0,0,0,0,0,0,0,0,0,0,-0.2334,-0.2334,0,-0.2291,-0.229,-0.229,-0.2297,-0.2298,-0.2298,-0.2299,-0.2254,-0.2252,-0.225,0,0,0,0,0,0,0,0,0,0,0,0,0,-0.2424,-0.2423,-0.2334,-0.2334,-0.2333,-0.2291,-0.229,-0.229,-0.2297,-0.2298,-0.2298,-0.2299,-0.2254,-0.2252,-0.225,0,0,0,0,0,0,0,0,0,0,0,0,0,-0.2384,-0.2422,-0.2334,-0.2332,-0.2331,-0.2291,-0.229,-0.229,-0.2296,-0.2298,-0.2299,-0.23,-0.2255,-0.2252,-0.225,-0.2209,0,0,-0.2241,-0.224,0,0,0,0,0,0,0,0,-0.2386,-0.238,-0.2333,-0.2332,-0.2331,-0.23,-0.2306,-0.2263,-0.2296,-0.231,-0.2299,-0.23,-0.2268,-0.2264,-0.2254,-0.2207,-0.2205,-0.2241,-0.2239,-0.2238,-0.2237,0,0,0,0,0,0,0,-0.2389,-0.2382,-0.2317,-0.2332,-0.2331,-0.2333,-0.2328,-0.2297,-0.2283,-0.2308,-0.2309,-0.2304,-0.2268,-0.2257,-0.2253,-0.2205,-0.2241,-0.2238,-0.2236,-0.2235,-0.2127,-0.2125,0,0,0,0,0,0,-0.2392,-0.2384,-0.2318,-0.2316,-0.2362,-0.233,-0.2325,-0.2309,-0.2283,-0.2281,-0.2303,-0.2304,-0.2261,-0.2256,-0.2251,-0.2205,-0.2238,-0.2235,-0.2233,-0.2128,-0.2126,-0.2125,0,0,0,0,0,0,-0.2394,-0.2386,-0.232,-0.235,-0.2342,-0.2328,-0.2309,-0.2308,-0.2296,-0.2279,-0.2277,-0.2294,-0.2262,-0.2255,-0.2221,-0.2203,-0.2234,-0.2231,-0.2129,-0.2127,-0.2126,-0.2111,0,0,0,0,0,0,-0.2397,-0.2387,-0.2371,-0.235,-0.234,-0.229,-0.2308,-0.2306,-0.2291,-0.2293,-0.227,-0.2267,-0.2262,-0.2225,-0.2218,-0.22,-0.2229,-0.2131,-0.2128,-0.2126,-0.2113,-0.2109,-0.2105,0,0,0,0,0,-0.24,-0.2368,-0.237,-0.2362,-0.232,-0.2289,-0.2283,-0.2278,-0.229,-0.2274,-0.2264,-0.2268,-0.2206,-0.2221,-0.2213,-0.2194,-0.2132,-0.2129,-0.2126,-0.2114,-0.2109,-0.2105,0,0,0,0,0,0,-0.2386,-0.2365,-0.2367,-0.2327,-0.231,-0.229,-0.227,-0.2273,-0.2251,-0.2254,-0.2248,-0.2243,-0.2208,-0.2198,-0.2215,-0.2156,-0.2171,-0.2166,-0.2164,-0.2159,-0.2156,-0.2159,-0.2226,0,0,0,0,0,-0.2379,-0.2355,-0.2337,-0.2304,-0.2295,-0.2284,-0.227,-0.2268,-0.225,-0.2242,-0.2229,-0.2211,-0.2188,-0.2173,-0.215,-0.2111,-0.2107,-0.2094,-0.2091,-0.2088,-0.2084,-0.2065,-0.206,-0.2116,-0.2116,-0.2116,0,0,-0.2362,-0.2348,-0.2333,-0.2301,-0.2287,-0.2263,-0.2278,-0.2251,-0.2234,-0.2238,-0.2205,-0.2195,-0.2175,-0.2139,-0.2122,-0.2129,-0.2068,-0.2084,-0.2082,-0.208,-0.2062,-0.2057,-0.2052,-0.2115,-0.2115,-0.2115,0,0,-0.2321,-0.2307,-0.2279,-0.2265,-0.2245,-0.2239,-0.2232,-0.2212,-0.2206,-0.2173,-0.2177,-0.2156,-0.2116,-0.2102,-0.209,-0.2047,-0.2051,-0.204,-0.202,-0.2002,-0.1998,-0.1994,-0.1981,-0.1976,-0.2036,-0.2036,-0.2036,0,-0.2304,-0.2268,-0.2264,-0.2238,-0.2225,-0.2228,-0.2201,-0.2188,-0.2161,-0.2152,-0.216,-0.2112,-0.2098,-0.206,-0.205,-0.2039,-0.2033,-0.2042,-0.1999,-0.1995,-0.1991,-0.1978,-0.1973,-0.2035,-0.2035,-0.2035,-0.2035,0,-0.2249,-0.2224,-0.2204,-0.2179,-0.2164,-0.2137,-0.2129,-0.2114,-0.2114,-0.2107,-0.2075,-0.2059,-0.2035,-0.2026,-0.2024,-0.1988,-0.1993,-0.2,-0.2015,-0.1985,-0.1973,-0.1968,-0.2034,-0.2034,-0.2034,-0.2034,0,0,-0.2196,-0.2172,-0.2165,-0.2155,-0.2134,-0.2115,-0.209,-0.2067,-0.2055,-0.2037,-0.2016,-0.1984,-0.1991,-0.1977,-0.1974,-0.1958,-0.1928,-0.1967,-0.1967,-0.1962,-0.189,-0.1886,-0.1881,-0.193,-0.1929,-0.1929,-0.1893,0,-0.2155,-0.211,-0.2107,-0.2067,-0.2045,-0.205,-0.2028,-0.2013,-0.2006,-0.1988,-0.198,-0.1958,-0.1968,-0.196,-0.1944,-0.1935,-0.1914,-0.1938,-0.1913,-0.1912,-0.1919,-0.1874,-0.1869,-0.1836,-0.1888,-0.1887,-0.1886,0,-0.21,-0.2082,-0.204,-0.2025,-0.2016,-0.1996,-0.1977,-0.1959,-0.1943,-0.1939,-0.1925,-0.1926,-0.1901,-0.1916,-0.1883,-0.1899,-0.1889,-0.1883,-0.1882,-0.188,-0.1898,-0.1873,-0.1825,-0.182,-0.1878,-0.1879,-0.188,0,-0.2069,-0.2034,-0.2006,-0.1997,-0.1978,-0.1965,-0.1956,-0.1941,-0.1929,-0.1912,-0.1904,-0.1884,-0.1873,-0.1858,-0.1854,-0.1865,-0.1821,-0.1835,-0.1819,-0.1819,-0.181,-0.181,-0.1761,-0.18,-0.1801,-0.1801,-0.1801,0,-0.2024,-0.1999,-0.1992,-0.1974,-0.1947,-0.1944,-0.1917,-0.1909,-0.1897,-0.1879,-0.188,-0.1863,-0.1858,-0.184,-0.1837,-0.1811,-0.1805,-0.1803,-0.1802,-0.1803,-0.1804,-0.1797,-0.18,-0.1799,-0.18,-0.18,-0.18,0,-0.1985,-0.1979,-0.1949,-0.1934,-0.193,-0.191,-0.1898,-0.1882,-0.1876,-0.1854,-0.1848,-0.1839,-0.1819,-0.1813,-0.1787,-0.1785,-0.1756,-0.1757,-0.1761,-0.1762,-0.1746,-0.1748,-0.1691,-0.1685,-0.1727,-0.1727,-0.1727,0,-0.1957,-0.1938,-0.1922,-0.1911,-0.1902,-0.1883,-0.1871,-0.1868,-0.1855,-0.1838,-0.1824,-0.1804,-0.1788,-0.1755,-0.1747,-0.1728,-0.173,-0.1711,-0.1727,-0.173,-0.1732,-0.1734,-0.1733,-0.1709,-0.1708,-0.1708,-0.1707,0,-0.1909,-0.1908,-0.1891,-0.1873,-0.1859,-0.1845,-0.1831,-0.1821,-0.1817,-0.1803,-0.1782,-0.177,-0.1746,-0.1727,-0.1709,-0.17,-0.1704,-0.1703,-0.1698,-0.1699,-0.1704,-0.1703,-0.1755,-0.1704,-0.1704,-0.1705,-0.1705,-0.1705,-0.1876,-0.1861,-0.1848,-0.1829,-0.1819,-0.1807,-0.1792,-0.1785,-0.1769,-0.1749,-0.1748,-0.1727,-0.1714,-0.169,-0.1681,-0.1665,-0.1671,-0.1664,-0.1662,-0.1661,-0.1661,-0.1706,-0.1662,-0.1662,-0.1662,-0.1662,-0.1662,0,-0.183,-0.1823,-0.1806,-0.1788,-0.1774,-0.1779,-0.1764,-0.1752,-0.1734,-0.1722,-0.1707,-0.1685,-0.1667,-0.1658,-0.164,-0.1629,-0.1631,-0.1625,-0.1626,-0.1625,-0.1655,-0.1662,-0.1625,-0.1625,-0.1625,-0.1625,-0.1625,-0.1625,-0.1805,-0.178,-0.1777,-0.1748,-0.1741,-0.1721,-0.1712,-0.1702,-0.1693,-0.1668,-0.1654,-0.1648,-0.1638,-0.162,-0.1605,-0.1603,-0.1597,-0.1591,-0.159,-0.1619,-0.1622,-0.1626,-0.1633,-0.1589,-0.1589,-0.1561,-0.1561,-0.1561]}]]